KB3HHA-13 Weather Reports


Display with metric or nautical units.
time (UTC)temp
F
wind
direction
speed
MPH
gust
MPH
rain 1hr
in
rain 24hr
in
rain mn
in
humidity
%
barometer
mb
20260505021701 76 112 3.0 11.0 0.00 0.00 0.00 34 1009.0
20260505021202 76 112 3.0 11.0 0.00 0.00 0.00 34 1009.0
20260505020700 76 112 3.0 11.0 0.00 0.00 0.00 34 1009.0
20260505020200 76 112 3.0 11.0 0.00 0.00 0.00 34 1009.0
20260505015701 76 112 3.0 11.0 0.00 0.00 0.00 34 1009.0
20260505015201 76 112 3.0 11.0 0.00 0.00 0.00 34 1009.0
20260505014701 76 112 3.0 11.0 0.00 0.00 0.00 34 1009.0
20260505014201 76 112 3.0 11.0 0.00 0.00 0.00 34 1009.0
20260505013701 76 112 3.0 11.0 0.00 0.00 0.00 34 1009.0
20260505013200 76 112 3.0 11.0 0.00 0.00 0.00 34 1009.0
20260505012703 76 112 3.0 11.0 0.00 0.00 0.00 34 1009.0
20260505012200 76 112 3.0 11.0 0.00 0.00 0.00 34 1009.0
20260505011701 76 112 3.0 11.0 0.00 0.00 0.00 34 1009.0
20260505011203 76 112 3.0 11.0 0.00 0.00 0.00 34 1009.0
20260505010701 76 112 3.0 11.0 0.00 0.00 0.00 34 1009.0
20260505010200 76 112 3.0 11.0 0.00 0.00 0.00 34 1009.0
20260505005700 76 112 3.0 11.0 0.00 0.00 0.00 34 1009.0
20260505005202 76 112 3.0 11.0 0.00 0.00 0.00 34 1009.0
20260505004702 76 112 3.0 11.0 0.00 0.00 0.00 34 1009.0
20260505004201 76 112 3.0 11.0 0.00 0.00 0.00 34 1009.0
20260505003700 76 112 3.0 11.0 0.00 0.00 0.00 34 1009.0
20260505003200 76 112 3.0 11.0 0.00 0.00 0.00 34 1009.0
20260505002700 76 112 3.0 11.0 0.00 0.00 0.00 34 1009.0
20260505002200 76 112 3.0 11.0 0.00 0.00 0.00 34 1009.0
20260505001700 76 112 3.0 11.0 0.00 0.00 0.00 34 1009.0
20260505001202 76 112 3.0 11.0 0.00 0.00 0.00 34 1009.0
20260505000702 76 112 3.0 11.0 0.00 0.00 0.00 34 1009.0
20260505000204 76 112 3.0 11.0 0.00 0.00 0.00 34 1009.0
20260504235701 76 112 3.0 11.0 0.00 0.00 0.00 34 1009.0
20260504235201 76 112 3.0 11.0 0.00 0.00 0.00 34 1009.0
20260504234702 76 112 3.0 11.0 0.00 0.00 0.00 34 1009.0
20260504234200 76 112 3.0 11.0 0.00 0.00 0.00 34 1009.0
20260504233701 76 112 3.0 11.0 0.00 0.00 0.00 34 1009.0
20260504233202 76 112 3.0 11.0 0.00 0.00 0.00 34 1009.0
20260504232702 76 112 3.0 11.0 0.00 0.00 0.00 34 1009.0
20260504232201 76 112 3.0 11.0 0.00 0.00 0.00 34 1009.0
20260504231702 76 112 3.0 11.0 0.00 0.00 0.00 34 1009.0
20260504231200 76 112 3.0 11.0 0.00 0.00 0.00 34 1009.0
20260504230700 76 112 3.0 11.0 0.00 0.00 0.00 34 1009.0
20260504230201 76 112 3.0 11.0 0.00 0.00 0.00 34 1009.0
20260504225700 76 112 3.0 11.0 0.00 0.00 0.00 34 1009.0
20260504225201 76 112 3.0 11.0 0.00 0.00 0.00 34 1009.0
20260504224702 76 112 3.0 11.0 0.00 0.00 0.00 34 1009.0
20260504224202 76 112 3.0 11.0 0.00 0.00 0.00 34 1009.0
20260504223702 76 112 3.0 11.0 0.00 0.00 0.00 34 1009.0
20260504223202 76 112 3.0 11.0 0.00 0.00 0.00 34 1009.0
20260504222701 76 112 3.0 11.0 0.00 0.00 0.00 34 1009.0
20260504222203 76 112 3.0 11.0 0.00 0.00 0.00 34 1009.0
20260504221703 76 112 3.0 11.0 0.00 0.00 0.00 34 1009.0
20260504221201 76 112 3.0 11.0 0.00 0.00 0.00 34 1009.0
20260504220701 76 112 3.0 11.0 0.00 0.00 0.00 34 1009.0
20260504220200 76 112 3.0 11.0 0.00 0.00 0.00 34 1009.0
20260504215700 76 112 3.0 11.0 0.00 0.00 0.00 34 1009.0
20260504215200 76 112 3.0 11.0 0.00 0.00 0.00 34 1009.0
20260504214700 76 112 3.0 11.0 0.00 0.00 0.00 34 1009.0
20260504214200 76 112 4.0 11.0 0.00 0.00 0.00 33 1009.0
20260504213701 77 90 2.0 8.0 0.00 0.00 0.00 33 1008.9
20260504213200 77 90 1.0 8.0 0.00 0.00 0.00 33 1008.9
20260504212701 77 90 2.0 8.0 0.00 0.00 0.00 35 1009.0
20260504212200 77 67 1.0 6.0 0.00 0.00 0.00 35 1008.9
20260504211702 77 90 2.0 6.0 0.00 0.00 0.00 34 1008.9
20260504211200 77 112 1.0 7.0 0.00 0.00 0.00 34 1009.0
20260504210703 77 135 3.0 7.0 0.00 0.00 0.00 34 1008.9
20260504210201 77 112 2.0 5.0 0.00 0.00 0.00 34 1009.0
20260504205700 77 90 2.0 5.0 0.00 0.00 0.00 34 1009.0
20260504205200 77 90 2.0 5.0 0.00 0.00 0.00 33 1008.9
20260504204702 77 90 2.0 10.0 0.00 0.00 0.00 34 1009.1
20260504204203 77 112 4.0 10.0 0.00 0.00 0.00 33 1009.1
20260504203700 77 135 2.0 5.0 0.00 0.00 0.00 33 1009.0
20260504203200 77 90 2.0 10.0 0.00 0.00 0.00 33 1009.1
20260504202700 77 112 1.0 10.0 0.00 0.00 0.00 32 1009.3
20260504202202 77 135 4.0 10.0 0.00 0.00 0.00 34 1009.4
20260504201701 77 90 2.0 8.0 0.00 0.00 0.00 34 1009.4
20260504201200 77 90 2.0 8.0 0.00 0.00 0.00 34 1009.4
20260504200700 77 135 3.0 8.0 0.00 0.00 0.00 33 1009.5
20260504200202 77 90 3.0 11.0 0.00 0.00 0.00 34 1009.6
20260504195700 77 112 3.0 11.0 0.00 0.00 0.00 33 1009.7
20260504195204 77 135 3.0 9.0 0.00 0.00 0.00 33 1009.8
20260504194700 78 112 4.0 8.0 0.00 0.00 0.00 33 1009.9
20260504194200 77 90 3.0 6.0 0.00 0.00 0.00 34 1009.9
20260504193701 77 67 1.0 8.0 0.00 0.00 0.00 34 1010.0
20260504193201 77 90 2.0 8.0 0.00 0.00 0.00 33 1010.0
20260504192700 77 90 1.0 7.0 0.00 0.00 0.00 34 1010.1
20260504192201 77 67 3.0 7.0 0.00 0.00 0.00 35 1010.2
20260504191701 77 90 1.0 7.0 0.00 0.00 0.00 34 1010.3
20260504191201 77 112 3.0 10.0 0.00 0.00 0.00 33 1010.4
20260504190700 77 67 4.0 10.0 0.00 0.00 0.00 35 1010.6
20260504190202 77 90 1.0 9.0 0.00 0.00 0.00 35 1010.6
20260504185702 77 67 3.0 9.0 0.00 0.00 0.00 34 1010.7
20260504185201 77 45 0.0 5.0 0.00 0.00 0.00 37 1010.8
20260504184702 76 90 0.0 7.0 0.00 0.00 0.00 35 1011.0
20260504184200 76 112 1.0 7.0 0.00 0.00 0.00 35 1011.0
20260504183700 76 90 2.0 8.0 0.00 0.00 0.00 35 1011.2
20260504183204 76 90 2.0 8.0 0.00 0.00 0.00 34 1011.2
20260504182700 76 112 3.0 8.0 0.00 0.00 0.00 35 1011.3
20260504182201 76 90 3.0 8.0 0.00 0.00 0.00 37 1011.4
20260504181700 76 90 2.0 7.0 0.00 0.00 0.00 37 1011.4
20260504181200 75 90 2.0 7.0 0.00 0.00 0.00 36 1011.6
20260504180700 75 67 2.0 6.0 0.00 0.00 0.00 37 1011.6
20260504180200 75 90 2.0 11.0 0.00 0.00 0.00 36 1011.7
20260504175701 75 67 4.0 11.0 0.00 0.00 0.00 36 1011.9
20260504175201 75 67 2.0 5.0 0.00 0.00 0.00 38 1011.8
20260504174704 74 90 1.0 5.0 0.00 0.00 0.00 35 1011.8
20260504174200 74 90 1.0 7.0 0.00 0.00 0.00 36 1011.9
20260504173700 74 90 2.0 7.0 0.00 0.00 0.00 37 1011.9
20260504173202 74 112 3.0 6.0 0.00 0.00 0.00 36 1012.0
20260504172702 74 45 3.0 5.0 0.00 0.00 0.00 39 1012.1
20260504172200 73 45 0.0 7.0 0.00 0.00 0.00 38 1012.3
20260504171700 73 67 1.0 7.0 0.00 0.00 0.00 37 1012.2
20260504171202 73 90 2.0 7.0 0.00 0.00 0.00 37 1012.3
20260504170700 73 112 1.0 9.0 0.00 0.00 0.00 38 1012.4
20260504170201 73 67 4.0 9.0 0.00 0.00 0.00 36 1012.5
20260504160203 69 67 1.0 6.0 0.00 0.00 0.00 39 1013.2
20260504150700 66 67 3.0 8.0 0.00 0.00 0.00 41 1013.7
20260504150200 65 112 1.0 8.0 0.00 0.00 0.00 40 1013.8
20260504141200 62 90 2.0 6.0 0.00 0.00 0.00 47 1013.8
20260504140700 61 90 1.0 6.0 0.00 0.00 0.00 46 1013.9
20260504140201 61 90 1.0 6.0 0.00 0.00 0.00 47 1013.9
20260504130700 55 67 0.0 4.0 0.00 0.00 0.00 60 1014.4
20260504130200 55 67 0.0 3.0 0.00 0.00 0.00 62 1014.5
20260504120200 48 90 1.0 2.0 0.00 0.00 0.00 76 1014.8
20260504110702 43 45 0.0 0.0 0.00 0.00 0.00 92 1015.0
20260504110202 42 45 0.0 0.0 0.00 0.00 0.00 92 1015.0
20260504100201 44 45 0.0 0.0 0.00 0.00 0.00 89 1014.9
20260504081700 43 45 0.0 0.0 0.00 0.00 0.00 90 1015.2
20260504081202 43 45 0.0 0.0 0.00 0.00 0.00 90 1015.2
20260504080701 42 45 0.0 0.0 0.00 0.00 0.00 90 1015.2
20260504080201 42 45 0.0 0.0 0.00 0.00 0.00 90 1015.3
20260504070202 41 45 0.0 0.0 0.00 0.00 0.00 90 1015.3
20260504060200 39 45 0.0 0.0 0.00 0.00 0.00 91 1015.7
20260504050700 39 45 0.0 0.0 0.00 0.00 0.00 88 1015.8
20260504050201 39 45 0.0 0.0 0.00 0.00 0.00 88 1015.9
20260504045701 39 45 0.0 0.0 0.00 0.00 0.00 87 1015.9
20260504045200 39 45 0.0 0.0 0.00 0.00 0.00 87 1015.8
20260504044701 39 45 0.0 0.0 0.00 0.00 0.00 87 1015.8
20260504044201 39 45 0.0 0.0 0.00 0.00 0.00 87 1015.8
20260504043701 39 45 0.0 0.0 0.00 0.00 0.00 87 1015.7
20260504043200 39 45 0.0 0.0 0.00 0.00 0.00 87 1015.7
20260504042702 40 45 0.0 0.0 0.00 0.00 0.00 86 1015.6
20260504042201 40 45 0.0 0.0 0.00 0.00 0.00 86 1015.7
20260504041701 40 45 0.0 0.0 0.00 0.00 0.00 85 1015.7
20260504041202 40 45 0.0 0.0 0.00 0.00 0.00 85 1015.7
20260504040702 40 45 0.0 0.0 0.00 0.00 0.00 85 1015.6
20260504040201 40 45 0.0 0.0 0.00 0.00 0.00 84 1015.6
20260504035700 40 45 0.0 0.0 0.00 0.00 0.00 84 1015.6
20260504035200 41 45 0.0 0.0 0.00 0.00 0.00 84 1015.6
20260504034702 41 45 0.0 0.0 0.00 0.00 0.00 83 1015.6
20260504034201 41 45 0.0 0.0 0.00 0.00 0.00 83 1015.6
20260504033700 41 45 0.0 0.0 0.00 0.00 0.00 82 1015.6
20260504033202 41 45 0.0 0.0 0.00 0.00 0.00 82 1015.5
20260504032700 41 45 0.0 0.0 0.00 0.00 0.00 81 1015.5
20260504032200 42 45 0.0 0.0 0.00 0.00 0.00 81 1015.4
20260504031700 42 45 0.0 0.0 0.00 0.00 0.00 81 1015.4
20260504031200 42 45 0.0 0.0 0.00 0.00 0.00 81 1015.3
20260504030700 42 45 0.0 0.0 0.00 0.00 0.00 80 1015.2
20260504030202 42 45 0.0 0.0 0.00 0.00 0.00 79 1015.3
20260504025700 43 45 0.0 0.0 0.00 0.00 0.00 79 1015.2
20260504025202 43 45 0.0 0.0 0.00 0.00 0.00 78 1015.2
20260504024700 43 45 0.0 0.0 0.00 0.00 0.00 79 1015.1
20260504024202 43 45 0.0 0.0 0.00 0.00 0.00 78 1015.0
20260504023701 43 45 0.0 0.0 0.00 0.00 0.00 76 1015.0
20260504023200 44 45 0.0 0.0 0.00 0.00 0.00 75 1015.0
20260504022702 44 45 0.0 0.0 0.00 0.00 0.00 75 1015.0
20260504022200 44 45 0.0 0.0 0.00 0.00 0.00 75 1015.0